[Date Prev][Date Next][Thread Prev][Thread Next] - [Date Index][Thread Index][Author Index]
2 Line ISS Keps 12-10
- Subject: [sarex] 2 Line ISS Keps 12-10
- From: "Dave Larsen PhD" <doc@xxxxxxxxxxx>
- Date: Mon, 10 Dec 2001 03:44:47 -0800
ISS
1 25544U 98067A 01344.26779816 .00054779 00000-0 59617-3 0 8192
2 25544 51.6399 282.7126 0007363 74.4146 43.0720 15.62857392174565
----
Via the sarex mailing list at AMSAT.ORG courtesy of AMSAT-NA.
To unsubscribe, send "unsubscribe sarex" to Majordomo@amsat.org
AMSAT Home